User: anonymous   Login
Location: Arbon
(43.0005°N, 0.7472°E)
Time: 11:14:20
(UTC+00:00)
Language:

Cosmos 1455 Rocket - Orbit

View from above orbital plane
View from above orbital plane
View from above satellite
View from above satellite

Ground track
Ground track

The orbit data is extracted from the following two-line orbital elements,

1 14033U 83037B   20299.90178900 +.00000112 +00000-0 +10625-4 0  9990
2 14033 082.5046 275.2939 0018615 032.8415 327.3953 14.83822044640412
Epoch (UTC): 25 October 2020 21:38:34
Eccentricity: 0.0018615
inclination: 82.5046°
perigee height: 604 km
apogee height: 630 km
right ascension of ascending node: 275.2939°
argument of perigee: 32.8415°
revolutions per day: 14.83822044
mean anomaly at epoch: 327.3953°
orbit number at epoch: 64041

The dashed part of the orbit path shows where the satellite is in the earth's shadow,  

DLR